TimeCST,TemperatureF,Dew PointF,Humidity,Sea Level PressureIn,VisibilityMPH,Wind Direction,Wind SpeedMPH,Gust SpeedMPH,PrecipitationIn,Events,Conditions,WindDirDegrees,DateUTC
12:15 AM,41.4,41.2,99,30.50,10.0,North,6.9,-,N/A,,Clear,360,2013-12-12 06:15:00
12:35 AM,41.4,38.5,89,30.51,10.0,North,5.8,-,N/A,,Clear,360,2013-12-12 06:35:00
12:55 AM,41.0,36.7,85,30.51,10.0,North,6.9,-,N/A,,Clear,360,2013-12-12 06:55:00
1:15 AM,40.5,36.5,86,30.51,10.0,NNE,6.9,-,N/A,,Clear,20,2013-12-12 07:15:00
1:35 AM,40.1,35.8,85,30.51,10.0,North,5.8,-,N/A,,Clear,360,2013-12-12 07:35:00
1:55 AM,39.2,35.6,87,30.51,10.0,North,4.6,-,N/A,,Clear,360,2013-12-12 07:55:00
2:15 AM,38.8,36.0,89,30.50,10.0,North,6.9,-,N/A,,Clear,10,2013-12-12 08:15:00
2:35 AM,38.7,35.8,89,30.51,10.0,North,5.8,-,N/A,,Clear,360,2013-12-12 08:35:00
2:55 AM,38.3,35.6,90,30.50,10.0,NNE,5.8,-,N/A,,Clear,20,2013-12-12 08:55:00
3:15 AM,37.4,36.3,96,30.51,10.0,North,4.6,-,N/A,,Clear,360,2013-12-12 09:15:00
3:35 AM,37.0,37.0,100,30.50,10.0,North,5.8,-,N/A,,Clear,10,2013-12-12 09:35:00
3:55 AM,36.9,36.9,100,30.50,10.0,NNE,5.8,-,N/A,,Clear,20,2013-12-12 09:55:00
4:15 AM,36.7,36.7,100,30.50,10.0,NNE,5.8,-,N/A,,Clear,20,2013-12-12 10:15:00
4:35 AM,36.7,36.7,100,30.51,10.0,North,5.8,-,N/A,,Clear,10,2013-12-12 10:35:00
4:55 AM,36.7,36.7,100,30.51,10.0,North,6.9,-,N/A,,Clear,10,2013-12-12 10:55:00
5:15 AM,36.7,36.0,97,30.52,10.0,North,5.8,-,N/A,,Clear,10,2013-12-12 11:15:00
5:35 AM,36.5,34.3,92,30.52,10.0,NNE,6.9,-,N/A,,Clear,20,2013-12-12 11:35:00
5:55 AM,36.0,33.1,89,30.52,10.0,NNE,5.8,-,N/A,,Clear,20,2013-12-12 11:55:00
6:15 AM,35.8,32.5,88,30.52,10.0,NNE,6.9,-,N/A,,Clear,20,2013-12-12 12:15:00
6:35 AM,35.8,32.4,87,30.52,10.0,NNE,8.1,-,N/A,,Clear,20,2013-12-12 12:35:00
6:55 AM,36.0,32.2,86,30.52,10.0,NNE,9.2,-,N/A,,Clear,30,2013-12-12 12:55:00
7:15 AM,36.0,32.2,86,30.53,10.0,NNE,9.2,-,N/A,,Clear,30,2013-12-12 13:15:00
7:35 AM,36.7,32.4,84,30.53,10.0,NNE,8.1,-,N/A,,Clear,20,2013-12-12 13:35:00
7:55 AM,37.8,32.4,81,30.54,10.0,NNE,11.5,-,N/A,,Clear,30,2013-12-12 13:55:00
8:15 AM,38.7,32.5,79,30.55,10.0,NNE,10.4,17.3,N/A,,Clear,30,2013-12-12 14:15:00
8:35 AM,39.2,32.4,76,30.55,10.0,NNE,10.4,-,N/A,,Clear,30,2013-12-12 14:35:00
8:55 AM,39.4,32.4,76,30.56,10.0,NNE,9.2,-,N/A,,Clear,30,2013-12-12 14:55:00
9:15 AM,41.9,32.9,70,30.55,10.0,NNE,10.4,-,N/A,,Clear,30,2013-12-12 15:15:00
9:35 AM,42.6,32.7,68,30.55,10.0,NE,8.1,-,N/A,,Clear,40,2013-12-12 15:35:00
9:55 AM,44.6,32.9,64,30.54,10.0,NE,12.7,16.1,N/A,,Clear,40,2013-12-12 15:55:00
10:15 AM,45.5,32.9,61,30.55,10.0,NE,9.2,-,N/A,,Clear,40,2013-12-12 16:15:00
10:35 AM,45.9,32.4,59,30.54,10.0,NNE,9.2,-,N/A,,Clear,30,2013-12-12 16:35:00
10:55 AM,46.6,32.2,57,30.53,10.0,NNE,9.2,-,N/A,,Clear,30,2013-12-12 16:55:00
11:15 AM,49.5,33.4,54,30.53,10.0,NNE,8.1,-,N/A,,Clear,20,2013-12-12 17:15:00
11:35 AM,50.0,32.7,52,30.53,10.0,NNE,9.2,-,N/A,,Clear,20,2013-12-12 17:35:00
11:55 AM,49.8,32.0,50,30.52,10.0,NNE,5.8,-,N/A,,Clear,20,2013-12-12 17:55:00
12:15 PM,52.3,32.5,47,30.51,10.0,NE,3.5,-,N/A,,Clear,40,2013-12-12 18:15:00
12:35 PM,53.6,31.5,43,30.50,10.0,ENE,6.9,-,N/A,,Clear,60,2013-12-12 18:35:00
12:55 PM,53.4,32.4,45,30.49,10.0,North,6.9,-,N/A,,Clear,10,2013-12-12 18:55:00
1:15 PM,54.3,32.4,43,30.47,10.0,North,4.6,-,N/A,,Clear,10,2013-12-12 19:15:00
1:35 PM,55.2,32.0,41,30.46,10.0,North,6.9,-,N/A,,Clear,360,2013-12-12 19:35:00
1:55 PM,54.9,30.7,40,30.45,10.0,ENE,6.9,-,N/A,,Clear,60,2013-12-12 19:55:00
2:15 PM,55.4,31.5,40,30.45,10.0,NNE,5.8,-,N/A,,Clear,20,2013-12-12 20:15:00
2:35 PM,55.0,31.8,41,30.44,10.0,North,8.1,-,N/A,,Clear,10,2013-12-12 20:35:00
2:55 PM,53.6,32.0,44,30.44,10.0,NE,6.9,-,N/A,,Clear,40,2013-12-12 20:55:00
3:15 PM,54.3,32.4,43,30.43,10.0,NNE,6.9,-,N/A,,Clear,20,2013-12-12 21:15:00
3:35 PM,54.0,31.6,43,30.43,10.0,NNE,8.1,-,N/A,,Clear,20,2013-12-12 21:35:00
3:55 PM,52.7,32.5,46,30.42,10.0,NE,4.6,-,N/A,,Clear,40,2013-12-12 21:55:00
4:15 PM,52.0,33.8,50,30.42,10.0,NNE,8.1,-,N/A,,Clear,30,2013-12-12 22:15:00
4:35 PM,51.1,33.3,51,30.42,10.0,NNE,8.1,-,N/A,,Clear,20,2013-12-12 22:35:00
4:55 PM,49.6,34.0,55,30.42,10.0,NNE,5.8,-,N/A,,Clear,20,2013-12-12 22:55:00
5:15 PM,48.2,34.7,60,30.42,10.0,NNE,3.5,-,N/A,,Clear,20,2013-12-12 23:15:00
5:35 PM,47.7,34.9,61,30.42,10.0,NNE,3.5,-,N/A,,Clear,30,2013-12-12 23:35:00
5:55 PM,46.9,35.2,64,30.41,10.0,NNE,3.5,-,N/A,,Clear,30,2013-12-12 23:55:00
6:15 PM,47.3,35.2,63,30.41,10.0,Calm,Calm,-,N/A,,Clear,0,2013-12-13 00:15:00
6:35 PM,47.3,35.2,63,30.41,10.0,Calm,Calm,-,N/A,,Clear,0,2013-12-13 00:35:00
6:55 PM,46.6,35.4,65,30.41,10.0,NNE,6.9,-,N/A,,Clear,30,2013-12-13 00:55:00
7:15 PM,46.6,34.7,63,30.42,10.0,NNE,3.5,-,N/A,,Clear,20,2013-12-13 01:15:00
7:35 PM,45.7,34.5,65,30.42,10.0,Calm,Calm,-,N/A,,Clear,0,2013-12-13 01:35:00
7:55 PM,44.4,34.3,68,30.42,10.0,Calm,Calm,-,N/A,,Clear,0,2013-12-13 01:55:00
8:15 PM,43.9,34.0,68,30.42,10.0,Calm,Calm,-,N/A,,Clear,0,2013-12-13 02:15:00
8:35 PM,43.7,34.3,70,30.42,10.0,Calm,Calm,-,N/A,,Clear,0,2013-12-13 02:35:00
8:55 PM,43.0,34.7,73,30.41,10.0,Calm,Calm,-,N/A,,Clear,0,2013-12-13 02:55:00
9:15 PM,42.6,34.7,74,30.40,10.0,Calm,Calm,-,N/A,,Clear,0,2013-12-13 03:15:00
9:35 PM,40.3,34.3,79,30.41,10.0,Calm,Calm,-,N/A,,Clear,0,2013-12-13 03:35:00
9:55 PM,39.2,34.3,83,30.40,10.0,Calm,Calm,-,N/A,,Clear,0,2013-12-13 03:55:00
10:15 PM,40.3,34.9,81,30.38,10.0,Calm,Calm,-,N/A,,Clear,0,2013-12-13 04:15:00
10:35 PM,39.6,34.0,80,30.38,10.0,Calm,Calm,-,N/A,,Clear,0,2013-12-13 04:35:00
10:55 PM,39.2,34.0,82,30.37,10.0,Calm,Calm,-,N/A,,Clear,0,2013-12-13 04:55:00
11:15 PM,37.9,37.9,100,30.37,10.0,Calm,Calm,-,N/A,,Clear,0,2013-12-13 05:15:00
11:35 PM,38.7,38.7,100,30.36,10.0,Calm,Calm,-,N/A,,Clear,0,2013-12-13 05:35:00
11:55 PM,38.3,38.3,100,30.36,10.0,Calm,Calm,-,N/A,,Clear,0,2013-12-13 05:55:00